Volver al catálogo

FENGYUN 1C DEB

ActivoSSO
NORAD 31336·DEBRIS·🇨🇳 China

Lanzado May 10, 1999 desde Taiyuan Satellite Launch Center

Loading…

Próximos Pases (próximas 24 horas)

TLE

ActualizadoSource: Space-Track

Época: Sep 14, 2026, 15:13 UTC

1 31336U 99025BQQ 26257.63443226  .00000473  00000-0  15916-3 0  9992
2 31336  98.4295 313.6529 0092393  13.3930 139.2092 14.39175875 17441

Sigue FENGYUN 1C DEB en tiempo real con AllMySat

Download on the App Store